Location: Unspecified
(0.0000°N, 0.0000°E)
Time: 06:53:24
(UTC+00:00)

Transit 4A - Pass Details

Date: 09 October 2023
Orbit: 864 x 979 km, 66.8° (Epoch: 05 December)

Event Time Altitude Azimuth Distance (km) Brightness Sun altitude
Rises 06:15:15 0° 165° (SSE) 3,546 11.2 6.9°
Reaches altitude 10° 06:19:04 10° 141° (SE) 2,627 11.1 7.9°
Maximum altitude 06:22:13 14° 110° (ESE) 2,338 12.0 8.7°
Drops below altitude 10° 06:25:24 10° 78° (ENE) 2,663 12.1 9.4°
Sets 06:29:16 0° 55° (NE) 3,627 11.8 10.4°
